RH
68 64 64 61 54 49 47 46 43 37 36 41 37 30 23 20 21 22 39 51 52 60 55 42 31 23 20 17 13 13 15 15 16 21 23 22 23 26 25 24 23 23 26
63 66 66 62 59 52 50 47 46 41 35 40 38 31 24 26 29 33 41 57 67 72 56 46 34 24 21 18 15 16 16 18 18 21 23 23 20 21 25 25 23 26 28
56 62 61 62 63 57 53 53 46 46 39 39 39 34 28 31 38 41 42 53 67 68 60 50 38 26 20 19 16 19 21 21 22 23 23 21 23 23 28 25 20 28 31
51 55 59 59 62 61 57 54 50 47 46 41 39 36 32 34 38 44 41 51 71 62 52 46 31 16 14 16 18 20 21 21 20 20 22 22 21 33 35 26 22 29 32
49 52 58 60 60 61 57 53 53 50 47 43 43 37 36 36 41 38 45 44 46 33 22 17 15 12 13 14 16 21 21 20 20 25 23 23 23 25 27 23 24 31 31
46 48 55 62 61 59 57 53 53 54 52 45 44 41 39 36 47 43 42 43 37 29 21 16 14 12 12 13 15 17 18 21 23 25 26 25 30 30 26 30 26 29 34
46 45 51 57 59 60 58 55 53 56 56 54 49 45 44 39 46 48 45 45 39 32 25 19 14 11 11 12 13 15 19 21 23 23 25 24 27 29 27 33 30 28 29
45 49 48 54 58 57 60 59 56 56 57 58 53 52 52 46 42 46 47 48 44 37 29 23 17 13 12 13 14 15 18 21 23 24 23 23 26 25 26 30 31 28 29
43 44 46 47 52 54 55 58 59 55 56 58 56 54 55 59 52 53 52 53 50 44 34 26 21 17 15 14 16 16 19 21 22 22 21 20 21 22 24 25 27 28 30
41 42 44 47 51 53 59 59 58 57 56 54 54 56 57 60 62 55 55 55 57 52 44 32 27 23 18 17 17 17 19 21 21 22 21 21 21 23 25 26 28 29 30
39 42 42 44 50 53 57 59 57 56 57 55 56 58 59 60 61 61 55 59 60 56 49 39 31 29 26 19 18 19 18 19 21 21 22 22 23 25 26 28 30 31 32
29 37 43 45 44 49 54 60 58 56 54 57 58 59 60 61 59 65 63 61 65 64 57 49 38 32 31 27 20 19 20 19 21 21 22 22 23 25 26 28 30 32 33
19 26 34 41 45 45 49 49 61 57 54 55 55 60 62 63 63 64 66 60 64 71 68 61 50 39 34 33 30 23 22 21 21 22 22 23 23 24 26 27 29 31 33
18 18 21 30 38 41 43 46 50 52 56 54 53 54 58 65 68 68 67 65 63 65 70 71 64 52 39 37 36 33 29 25 23 23 23 23 22 24 26 28 29 31 34
14 14 15 17 25 36 39 40 41 48 54 55 58 51 52 57 64 71 71 69 64 67 76 77 73 66 55 44 42 38 38 34 29 27 25 24 22 22 25 28 30 31 34
14 14 14 14 15 18 30 38 42 44 51 54 55 55 50 51 58 69 72 71 71 74 78 85 81 75 67 57 48 45 42 42 39 34 31 31 28 26 25 26 29 31 34
12 13 14 14 15 14 14 20 30 37 41 48 54 53 54 55 56 68 73 74 72 73 78 85 87 81 75 69 61 52 49 48 47 44 39 36 33 31 28 26 28 31 33
12 13 13 13 13 14 15 14 14 19 28 34 42 48 53 54 58 66 70 71 75 79 76 77 85 85 82 75 71 66 59 54 54 52 50 46 40 38 34 30 29 33 35
15 15 15 16 16 15 14 14 14 14 14 18 27 35 43 50 55 59 68 70 73 77 79 77 78 83 84 84 81 77 71 63 57 58 55 50 47 43 39 37 35 35 38
19 19 19 20 18 18 17 15 14 14 13 13 13 17 28 38 45 55 59 63 69 72 75 75 71 79 84 86 82 77 77 72 67 64 62 60 50 46 44 41 39 38 42
27 26 25 22 22 21 19 18 16 15 14 14 13 13 14 19 31 42 54 61 62 62 61 66 68 67 78 87 88 83 75 73 72 70 68 66 60 57 51 45 42 38 40
32 31 31 29 27 24 21 20 19 18 16 15 14 13 13 13 17 23 35 50 60 64 65 68 70 66 67 81 89 86 84 80 70 68 69 67 65 66 61 54 48 43 41
28 28 28 28 27 27 26 24 22 21 18 16 16 15 14 14 13 16 21 31 45 58 63 67 70 73 73 75 82 87 89 81 80 78 72 68 63 65 64 60 56 50 48
28 27 28 28 27 27 28 28 26 24 21 17 16 16 17 16 15 14 16 21 29 42 51 62 66 75 75 78 81 85 89 85 76 76 75 74 70 67 67 68 62 60 58
34 34 34 34 33 34 33 33 33 29 26 23 19 19 18 18 17 17 15 16 21 28 42 49 63 68 72 74 81 81 99 87 85 74 75 77 75 73 71 70 67 66 63
58 58 59 58 54 48 42 41 39 36 32 30 25 22 21 19 19 18 19 17 17 20 26 41 53 58 67 71 77 84 76 96 83 86 78 82 79 76 78 77 74 71 70